When you browse on this site, cookies collect data to enhance your experience and personalize the content and advertising you see.
Visit our Privacy Policy to learn more. By continuing to use the site, you agree to this use of cookies and data.

Hourly Weather Punakha

Today, 13 August, Thursday

Time Temperature Precipitation Wind Pressure Humidity
00:00 +20°C° 0 mm 1 mps 585 mmHg 97%
01:00 +18°C° 0.5 mm 0 mps 584 mmHg 97%
02:00 +18°C° 0.5 mm 0 mps 584 mmHg 97%
03:00 +18°C° 0.5 mm 0 mps 583 mmHg 97%
04:00 +18°C° 0 mm 0 mps 583 mmHg 96%
05:00 +18°C° 0 mm 0 mps 584 mmHg 95%
06:00 +18°C° 0 mm 0 mps 584 mmHg 93%
07:00 +22°C° 0.1 mm 1 mps 584 mmHg 89%
08:00 +23°C° 0.1 mm 1 mps 585 mmHg 84%
09:00 +25°C° 0.1 mm 2 mps 586 mmHg 79%
10:00 +26°C° 0.4 mm 2 mps 586 mmHg 77%
11:00 +26°C° 0.4 mm 2 mps 586 mmHg 74%
12:00 +27°C° 0.4 mm 2 mps 585 mmHg 71%
13:00 +27°C° 0.7 mm 2 mps 585 mmHg 74%
14:00 +26°C° 0.7 mm 2 mps 584 mmHg 78%
15:00 +26°C° 0.7 mm 2 mps 583 mmHg 81%
16:00 +25°C° 0.8 mm 2 mps 583 mmHg 86%
17:00 +23°C° 0.8 mm 2 mps 582 mmHg 91%
18:00 +22°C° 0.8 mm 1 mps 582 mmHg 96%
19:00 +22°C° 0.3 mm 1 mps 582 mmHg 97%
20:00 +21°C° 0.3 mm 1 mps 583 mmHg 97%
21:00 +21°C° 0.3 mm 1 mps 583 mmHg 97%
22:00 +19°C° 0.5 mm 0 mps 583 mmHg 97%
23:00 +19°C° 0.5 mm 0 mps 583 mmHg 97%

Tomorrow, 14 August, Friday

Time Temperature Precipitation Wind Pressure Humidity
00:00 +19°C° 0.5 mm 0 mps 583 mmHg 97%
01:00 +19°C° 0.5 mm 0 mps 583 mmHg 97%
02:00 +18°C° 0.5 mm 0 mps 582 mmHg 97%
03:00 +18°C° 0.5 mm 0 mps 582 mmHg 97%
04:00 +18°C° 0.2 mm 0 mps 582 mmHg 97%
05:00 +18°C° 0.2 mm 0 mps 582 mmHg 97%
06:00 +18°C° 0.2 mm 0 mps 582 mmHg 97%
07:00 +19°C° 0.1 mm 0 mps 583 mmHg 95%
08:00 +20°C° 0.1 mm 0 mps 583 mmHg 93%
09:00 +22°C° 0.1 mm 1 mps 584 mmHg 91%
10:00 +23°C° 0.3 mm 1 mps 584 mmHg 88%
11:00 +24°C° 0.3 mm 2 mps 583 mmHg 85%
12:00 +25°C° 0.3 mm 2 mps 583 mmHg 82%
13:00 +25°C° 0.8 mm 2 mps 583 mmHg 84%
14:00 +24°C° 0.8 mm 2 mps 582 mmHg 87%
15:00 +24°C° 0.8 mm 2 mps 581 mmHg 89%
16:00 +24°C° 0.6 mm 2 mps 581 mmHg 91%
17:00 +23°C° 0.6 mm 1 mps 581 mmHg 94%
18:00 +22°C° 0.6 mm 1 mps 580 mmHg 97%
19:00 +22°C° 0.3 mm 1 mps 581 mmHg 97%
20:00 +21°C° 0.3 mm 1 mps 581 mmHg 98%
21:00 +21°C° 0.3 mm 1 mps 582 mmHg 99%
22:00 +20°C° 0.7 mm 1 mps 582 mmHg 99%
23:00 +20°C° 0.7 mm 1 mps 582 mmHg 98%

Day after tomorrow, 15 August, Saturday

Time Temperature Precipitation Wind Pressure Humidity
00:00 +20°C° 0.7 mm 1 mps 582 mmHg 98%
01:00 +20°C° 0.7 mm 1 mps 582 mmHg 98%
02:00 +18°C° 0.7 mm 0 mps 581 mmHg 98%
03:00 +18°C° 0.7 mm 0 mps 581 mmHg 98%
04:00 +18°C° 0.2 mm 0 mps 581 mmHg 98%
05:00 +18°C° 0.2 mm 0 mps 581 mmHg 98%
06:00 +18°C° 0.2 mm 0 mps 582 mmHg 98%
07:00 +19°C° 0.1 mm 0 mps 582 mmHg 96%
08:00 +21°C° 0.1 mm 1 mps 583 mmHg 95%
09:00 +22°C° 0.1 mm 1 mps 583 mmHg 93%
10:00 +23°C° 0.3 mm 1 mps 583 mmHg 88%
11:00 +24°C° 0.3 mm 2 mps 583 mmHg 83%
12:00 +25°C° 0.3 mm 2 mps 583 mmHg 78%
13:00 +25°C° 0.7 mm 2 mps 583 mmHg 80%
14:00 +25°C° 0.7 mm 2 mps 582 mmHg 83%
15:00 +25°C° 0.7 mm 2 mps 582 mmHg 86%
16:00 +24°C° 0.7 mm 2 mps 582 mmHg 90%
17:00 +23°C° 0.7 mm 2 mps 581 mmHg 93%
18:00 +22°C° 0.7 mm 1 mps 581 mmHg 97%
19:00 +21°C° 0.6 mm 1 mps 582 mmHg 97%
20:00 +21°C° 0.6 mm 1 mps 582 mmHg 97%
21:00 +19°C° 0.6 mm 0 mps 583 mmHg 98%
22:00 +18°C° 0.6 mm 0 mps 583 mmHg 97%
23:00 +18°C° 0.6 mm 0 mps 583 mmHg 97%

16 August, Sunday

Time Temperature Precipitation Wind Pressure Humidity
00:00 +18°C° 0.6 mm 0 mps 583 mmHg 97%
01:00 +18°C° 0.6 mm 0 mps 582 mmHg 97%
02:00 +18°C° 0.6 mm 0 mps 582 mmHg 96%
03:00 +18°C° 0.6 mm 0 mps 582 mmHg 96%
04:00 +18°C° 0.4 mm 0 mps 582 mmHg 96%
05:00 +18°C° 0.4 mm 0 mps 582 mmHg 97%
06:00 +18°C° 0.4 mm 0 mps 582 mmHg 98%
07:00 +19°C° 0.3 mm 0 mps 583 mmHg 96%
08:00 +21°C° 0.3 mm 1 mps 583 mmHg 95%
09:00 +22°C° 0.3 mm 1 mps 584 mmHg 94%
10:00 +22°C° 0.2 mm 1 mps 584 mmHg 91%
11:00 +23°C° 0.2 mm 1 mps 584 mmHg 87%
12:00 +24°C° 0.2 mm 2 mps 584 mmHg 84%
13:00 +24°C° 0.4 mm 2 mps 583 mmHg 83%
14:00 +25°C° 0.4 mm 2 mps 583 mmHg 82%
15:00 +25°C° 0.4 mm 2 mps 582 mmHg 81%
16:00 +24°C° 0.6 mm 2 mps 582 mmHg 86%
17:00 +23°C° 0.6 mm 1 mps 581 mmHg 91%
18:00 +22°C° 0.6 mm 1 mps 581 mmHg 96%
19:00 +22°C° 0.5 mm 1 mps 581 mmHg 97%
20:00 +21°C° 0.5 mm 1 mps 582 mmHg 97%
21:00 +18°C° 0.5 mm 0 mps 582 mmHg 97%
22:00 +18°C° 0.6 mm 0 mps 582 mmHg 97%
23:00 +18°C° 0.6 mm 0 mps 583 mmHg 97%

17 August, Monday

Time Temperature Precipitation Wind Pressure Humidity
00:00 +18°C° 0.6 mm 0 mps 583 mmHg 97%
01:00 +18°C° 0.5 mm 0 mps 583 mmHg 97%
02:00 +18°C° 0.5 mm 0 mps 582 mmHg 97%
03:00 +18°C° 0.5 mm 0 mps 582 mmHg 96%
04:00 +18°C° 0.2 mm 0 mps 582 mmHg 96%
05:00 +18°C° 0.2 mm 0 mps 583 mmHg 95%
06:00 +18°C° 0.2 mm 0 mps 583 mmHg 94%
07:00 +18°C° 0.1 mm 0 mps 583 mmHg 94%
08:00 +19°C° 0.1 mm 0 mps 583 mmHg 94%
09:00 +19°C° 0.1 mm 0 mps 584 mmHg 94%
10:00 +22°C° 0.2 mm 1 mps 584 mmHg 89%
11:00 +23°C° 0.2 mm 1 mps 584 mmHg 85%
12:00 +25°C° 0.2 mm 2 mps 584 mmHg 80%
13:00 +25°C° 0.3 mm 2 mps 583 mmHg 78%
14:00 +25°C° 0.3 mm 2 mps 583 mmHg 75%
15:00 +26°C° 0.3 mm 2 mps 583 mmHg 73%
16:00 +25°C° 0.2 mm 2 mps 582 mmHg 79%
17:00 +24°C° 0.2 mm 1 mps 582 mmHg 85%
18:00 +23°C° 0.2 mm 1 mps 581 mmHg 91%
19:00 +22°C° 0.2 mm 1 mps 582 mmHg 93%
20:00 +21°C° 0.2 mm 1 mps 582 mmHg 95%
21:00 +19°C° 0.2 mm 0 mps 583 mmHg 97%
22:00 +19°C° 0.5 mm 0 mps 583 mmHg 97%
23:00 +18°C° 0.5 mm 0 mps 583 mmHg 97%

18 August, Tuesday

Time Temperature Precipitation Wind Pressure Humidity
00:00 +18°C° 0.5 mm 0 mps 583 mmHg 97%
01:00 +18°C° 0.2 mm 0 mps 582 mmHg 96%
02:00 +18°C° 0.2 mm 0 mps 582 mmHg 95%
03:00 +18°C° 0.2 mm 0 mps 582 mmHg 94%
04:00 +17°C° 0 mm 0 mps 582 mmHg 93%
05:00 +17°C° 0 mm 0 mps 582 mmHg 93%
06:00 +17°C° 0 mm 0 mps 582 mmHg 92%
07:00 +21°C° 0 mm 1 mps 583 mmHg 86%
08:00 +23°C° 0 mm 1 mps 584 mmHg 80%
09:00 +25°C° 0 mm 2 mps 585 mmHg 74%
10:00 +26°C° 0.3 mm 2 mps 585 mmHg 74%
11:00 +26°C° 0.3 mm 2 mps 585 mmHg 73%
12:00 +27°C° 0.3 mm 2 mps 585 mmHg 73%
13:00 +27°C° 0.7 mm 2 mps 584 mmHg 74%
14:00 +26°C° 0.7 mm 2 mps 583 mmHg 76%
15:00 +26°C° 0.7 mm 2 mps 583 mmHg 77%
16:00 +25°C° 0.8 mm 2 mps 582 mmHg 83%
17:00 +24°C° 0.8 mm 1 mps 582 mmHg 89%
18:00 +22°C° 0.8 mm 1 mps 582 mmHg 95%
19:00 +22°C° 0.3 mm 1 mps 582 mmHg 96%
20:00 +21°C° 0.3 mm 1 mps 582 mmHg 97%
21:00 +18°C° 0.3 mm 0 mps 583 mmHg 97%
22:00 +18°C° 0.3 mm 0 mps 583 mmHg 97%
23:00 +18°C° 0.3 mm 0 mps 583 mmHg 97%
Show more